Aeroporto :
LOGIN :

Iscrizione | Disclaimer

   EN    FR    IT 

 










Sommario :    VFR   VFR Marginale   IFR   IFR Intensivo   IFR Molto Intensivo
Visibilità : 
Base nubi : 
>= 8 km
>= 3000ft
5 / 8 km
1000 / 3000 ft
1500m / 5 km
500 / 1000 ft
800 / 1500m
200 / 500 ft
< 800m
< 200 ft
Simboli :   Temporali  Nebbia  Neve Forte  Precipitazioni Forti  Vento > 20 kt
SIGMETs :   Varie  Temporali  Ghiacco  Turbolenza  Onda orograficha  Ceneri Vulcaniche






- Altitudine del aeroporto : 3006 ft
- Codice IATA : LEN


LELN - Leon

ULTIMO METAR :
  • 200430Z AUTO 35003KT 9000 NCD M04/M04 Q1024

METARs OBSOLETI :
  • 200400Z AUTO 35004KT 9000 NCD M03/M04 Q1024
  • 200330Z AUTO VRB02KT 9000 NCD M02/M02 Q1024
  • 200300Z AUTO 36004KT 8000 NCD 01/M00 Q1024
  • 200230Z AUTO 36006KT 9000 NCD 00/M00 Q1025
  • 200200Z AUTO 36005KT 7000 NCD M02/M02 Q1025

TAF TAF LELN
Valido dal 20 a 03 ore il 20 a 12 ore UTC


200200Z 2003/2012 VRB03KT CAVOK



MetMap, La meteo Aeronautica in un colpo d'occhio ! - Copyright ORBIFLY Dicembre 2007 - Disclaimer

ORBIFLY MET'MAP TEAM :

Programmazione e sviluppo : Alexandra Zaïnal
Concezione : Baudouin d'Aumeries
Aiuto per la programmazione : Marc-Olivier Méhu
Supporto tecnico e logistico : Manuel Goepfert
Aiuto per la traduzione : Arnaldo La Scala

Contatto : metmap@orbifly.com




FONTI E CREDITI :

   NOAA